Time,TemperatureF,DewpointF,PressureIn,WindDirection,WindDirectionDegrees,WindSpeedMPH,WindSpeedGustMPH,Humidity,HourlyPrecipIn,Conditions,Clouds,dailyrainin,SoftwareType,DateUTC
2013-03-30 00:00:00,39.0,33.0,29.71,West,270,2.0,3.0,79,0.00,,,0.00,Weather View 32 v70,2013-03-30 04:00:00,
2013-03-30 00:10:00,39.0,33.3,29.71,West,270,1.0,3.0,80,0.00,,,0.00,Weather View 32 v70,2013-03-30 04:10:00,
2013-03-30 00:15:00,39.0,33.3,29.71,West,270,0.0,3.0,80,0.00,,,0.00,Weather View 32 v70,2013-03-30 04:15:00,
2013-03-30 00:20:00,39.0,33.3,29.71,West,270,0.0,3.0,80,0.00,,,0.00,Weather View 32 v70,2013-03-30 04:20:00,
2013-03-30 00:25:00,39.0,33.7,29.71,West,270,0.0,3.0,81,0.00,,,0.00,Weather View 32 v70,2013-03-30 04:25:00,
2013-03-30 00:30:00,39.0,33.7,29.71,West,270,0.0,3.0,81,0.00,,,0.00,Weather View 32 v70,2013-03-30 04:30:00,
2013-03-30 00:32:00,39.0,33.7,29.71,West,270,0.0,3.0,81,0.00,,,0.00,Weather View 32 v70,2013-03-30 04:32:00,
2013-03-30 00:35:00,39.0,33.7,29.71,West,270,1.0,3.0,81,0.00,,,0.00,Weather View 32 v70,2013-03-30 04:35:00,
2013-03-30 00:45:00,39.0,33.7,29.71,West,270,0.0,3.0,81,0.00,,,0.00,Weather View 32 v70,2013-03-30 04:45:00,
2013-03-30 00:55:00,39.0,33.7,29.71,West,270,2.0,5.0,81,0.00,,,0.00,Weather View 32 v70,2013-03-30 04:55:00,
2013-03-30 01:00:00,39.0,33.7,29.71,West,270,0.0,5.0,81,0.00,,,0.00,Weather View 32 v70,2013-03-30 05:00:00,
2013-03-30 01:05:00,38.0,33.0,29.71,West,270,0.0,5.0,82,0.00,,,0.00,Weather View 32 v70,2013-03-30 05:05:00,
2013-03-30 01:10:00,38.0,33.0,29.71,West,270,1.0,5.0,82,0.00,,,0.00,Weather View 32 v70,2013-03-30 05:10:00,
2013-03-30 01:15:00,38.0,33.0,29.71,West,270,1.0,5.0,82,0.00,,,0.00,Weather View 32 v70,2013-03-30 05:15:00,
2013-03-30 01:20:00,38.0,33.0,29.71,West,270,1.0,5.0,82,0.00,,,0.00,Weather View 32 v70,2013-03-30 05:20:00,
2013-03-30 01:25:00,38.0,33.0,29.71,West,270,0.0,5.0,82,0.00,,,0.00,Weather View 32 v70,2013-03-30 05:25:00,
2013-03-30 01:30:00,38.0,33.3,29.71,West,270,2.0,5.0,83,0.00,,,0.00,Weather View 32 v70,2013-03-30 05:30:00,
2013-03-30 01:35:00,38.0,33.0,29.71,West,270,0.0,5.0,82,0.00,,,0.00,Weather View 32 v70,2013-03-30 05:35:00,
2013-03-30 01:40:00,38.0,33.3,29.71,West,270,1.0,5.0,83,0.00,,,0.00,Weather View 32 v70,2013-03-30 05:40:00,
2013-03-30 01:50:00,38.0,33.3,29.71,WNW,292,1.0,5.0,83,0.00,,,0.00,Weather View 32 v70,2013-03-30 05:50:00,
2013-03-30 01:55:00,38.0,33.0,29.71,WNW,292,2.0,5.0,82,0.00,,,0.00,Weather View 32 v70,2013-03-30 05:55:00,
2013-03-30 02:00:00,38.0,33.0,29.71,WNW,292,0.0,5.0,82,0.00,,,0.00,Weather View 32 v70,2013-03-30 06:00:00,
2013-03-30 02:05:00,38.0,33.0,29.71,WNW,292,2.0,5.0,82,0.00,,,0.00,Weather View 32 v70,2013-03-30 06:05:00,
2013-03-30 02:10:00,38.0,33.0,29.71,West,270,1.0,5.0,82,0.00,,,0.00,Weather View 32 v70,2013-03-30 06:10:00,
2013-03-30 02:15:00,38.0,33.3,29.71,West,270,2.0,5.0,83,0.00,,,0.00,Weather View 32 v70,2013-03-30 06:15:00,
2013-03-30 02:20:00,37.0,32.3,29.71,West,270,0.0,5.0,83,0.00,,,0.00,Weather View 32 v70,2013-03-30 06:20:00,
2013-03-30 02:25:00,37.0,32.3,29.71,West,270,1.0,5.0,83,0.00,,,0.00,Weather View 32 v70,2013-03-30 06:25:00,
2013-03-30 02:30:00,37.0,32.6,29.71,West,270,0.0,5.0,84,0.00,,,0.00,Weather View 32 v70,2013-03-30 06:30:00,
2013-03-30 02:35:00,37.0,32.6,29.71,West,270,0.0,5.0,84,0.00,,,0.00,Weather View 32 v70,2013-03-30 06:35:00,
2013-03-30 02:45:00,37.0,32.6,29.71,West,270,1.0,5.0,84,0.00,,,0.00,Weather View 32 v70,2013-03-30 06:45:00,
2013-03-30 02:50:00,37.0,32.6,29.71,West,270,3.0,5.0,84,0.00,,,0.00,Weather View 32 v70,2013-03-30 06:50:00,
2013-03-30 02:55:00,36.0,31.6,29.71,WNW,292,1.0,5.0,84,0.00,,,0.00,Weather View 32 v70,2013-03-30 06:55:00,
2013-03-30 03:00:00,36.0,31.6,29.71,WNW,292,2.0,4.0,84,0.00,,,0.00,Weather View 32 v70,2013-03-30 07:00:00,
2013-03-30 03:05:00,36.0,31.6,29.71,West,270,2.0,5.0,84,0.00,,,0.00,Weather View 32 v70,2013-03-30 07:05:00,
2013-03-30 03:10:00,36.0,31.9,29.70,West,270,1.0,5.0,85,0.00,,,0.00,Weather View 32 v70,2013-03-30 07:10:00,
2013-03-30 03:15:00,36.0,31.9,29.70,West,270,4.0,5.0,85,0.00,,,0.00,Weather View 32 v70,2013-03-30 07:15:00,
2013-03-30 03:20:00,36.0,31.9,29.71,West,270,3.0,6.0,85,0.00,,,0.00,Weather View 32 v70,2013-03-30 07:20:00,
2013-03-30 03:25:00,36.0,31.9,29.71,West,270,2.0,6.0,85,0.00,,,0.00,Weather View 32 v70,2013-03-30 07:25:00,
2013-03-30 03:30:00,36.0,31.9,29.71,WNW,292,4.0,6.0,85,0.00,,,0.00,Weather View 32 v70,2013-03-30 07:30:00,
2013-03-30 03:35:00,36.0,31.9,29.71,West,270,2.0,6.0,85,0.00,,,0.00,Weather View 32 v70,2013-03-30 07:35:00,
2013-03-30 03:45:00,36.0,32.2,29.70,West,270,3.0,6.0,86,0.00,,,0.00,Weather View 32 v70,2013-03-30 07:45:00,
2013-03-30 03:50:00,36.0,32.2,29.70,West,270,6.0,6.0,86,0.00,,,0.00,Weather View 32 v70,2013-03-30 07:50:00,
2013-03-30 03:55:00,36.0,32.2,29.70,West,270,3.0,7.0,86,0.00,,,0.00,Weather View 32 v70,2013-03-30 07:55:00,
2013-03-30 04:05:00,36.0,32.5,29.70,West,270,3.0,7.0,87,0.00,,,0.00,Weather View 32 v70,2013-03-30 08:05:00,
2013-03-30 04:15:00,35.0,31.8,29.70,West,270,4.0,7.0,88,0.00,,,0.00,Weather View 32 v70,2013-03-30 08:15:00,
2013-03-30 04:20:00,35.0,31.5,29.71,WNW,292,4.0,7.0,87,0.00,,,0.00,Weather View 32 v70,2013-03-30 08:20:00,
2013-03-30 04:25:00,35.0,31.8,29.71,West,270,2.0,7.0,88,0.00,,,0.00,Weather View 32 v70,2013-03-30 08:25:00,
2013-03-30 04:35:00,35.0,31.8,29.71,WNW,292,3.0,7.0,88,0.00,,,0.00,Weather View 32 v70,2013-03-30 08:35:00,
2013-03-30 04:40:00,35.0,31.8,29.71,WNW,292,4.0,7.0,88,0.00,,,0.00,Weather View 32 v70,2013-03-30 08:40:00,
2013-03-30 04:50:00,35.0,31.8,29.70,West,270,5.0,7.0,88,0.00,,,0.00,Weather View 32 v70,2013-03-30 08:50:00,
2013-03-30 04:55:00,35.0,31.5,29.70,WNW,292,4.0,7.0,87,0.00,,,0.00,Weather View 32 v70,2013-03-30 08:55:00,
2013-03-30 05:00:00,35.0,31.5,29.70,West,270,4.0,7.0,87,0.00,,,0.00,Weather View 32 v70,2013-03-30 09:00:00,
2013-03-30 05:05:00,35.0,31.5,29.70,West,270,2.0,7.0,87,0.00,,,0.00,Weather View 32 v70,2013-03-30 09:05:00,
2013-03-30 05:10:00,36.0,32.2,29.70,West,270,3.0,7.0,86,0.00,,,0.00,Weather View 32 v70,2013-03-30 09:10:00,
2013-03-30 05:15:00,36.0,31.9,29.70,West,270,3.0,7.0,85,0.00,,,0.00,Weather View 32 v70,2013-03-30 09:15:00,
2013-03-30 05:20:00,36.0,31.9,29.70,West,270,1.0,6.0,85,0.00,,,0.00,Weather View 32 v70,2013-03-30 09:20:00,
2013-03-30 05:25:00,36.0,31.9,29.70,West,270,5.0,6.0,85,0.00,,,0.00,Weather View 32 v70,2013-03-30 09:25:00,
2013-03-30 05:30:00,36.0,31.9,29.70,West,270,2.0,6.0,85,0.00,,,0.00,Weather View 32 v70,2013-03-30 09:30:00,
2013-03-30 05:35:00,36.0,31.6,29.70,West,270,4.0,6.0,84,0.00,,,0.00,Weather View 32 v70,2013-03-30 09:35:00,
2013-03-30 05:45:00,36.0,31.6,29.70,WNW,292,3.0,7.0,84,0.00,,,0.00,Weather View 32 v70,2013-03-30 09:45:00,
2013-03-30 05:50:00,36.0,31.6,29.70,WNW,292,1.0,7.0,84,0.00,,,0.00,Weather View 32 v70,2013-03-30 09:50:00,
2013-03-30 05:55:00,36.0,31.6,29.70,West,270,1.0,7.0,84,0.00,,,0.00,Weather View 32 v70,2013-03-30 09:55:00,
2013-03-30 06:05:00,35.0,30.9,29.71,WNW,292,4.0,7.0,85,0.00,,,0.00,Weather View 32 v70,2013-03-30 10:05:00,
2013-03-30 06:10:00,35.0,30.9,29.71,WNW,292,1.0,7.0,85,0.00,,,0.00,Weather View 32 v70,2013-03-30 10:10:00,
2013-03-30 06:15:00,34.0,30.0,29.71,WNW,292,3.0,7.0,85,0.00,,,0.00,Weather View 32 v70,2013-03-30 10:15:00,
2013-03-30 06:25:00,34.0,30.5,29.72,West,270,1.0,7.0,87,0.00,,,0.00,Weather View 32 v70,2013-03-30 10:25:00,
2013-03-30 06:30:00,34.0,30.5,29.72,West,270,1.0,7.0,87,0.00,,,0.00,Weather View 32 v70,2013-03-30 10:30:00,
2013-03-30 06:35:00,34.0,30.5,29.72,West,270,1.0,7.0,87,0.00,,,0.00,Weather View 32 v70,2013-03-30 10:35:00,
2013-03-30 06:45:00,34.0,30.3,29.72,West,270,1.0,6.0,86,0.00,,,0.00,Weather View 32 v70,2013-03-30 10:45:00,
2013-03-30 06:50:00,34.0,30.0,29.72,West,270,1.0,6.0,85,0.00,,,0.00,Weather View 32 v70,2013-03-30 10:50:00,
2013-03-30 07:00:00,34.0,30.0,29.73,West,270,3.0,6.0,85,0.00,,,0.00,Weather View 32 v70,2013-03-30 11:00:00,
2013-03-30 07:05:00,34.0,30.0,29.73,West,270,2.0,6.0,85,0.00,,,0.00,Weather View 32 v70,2013-03-30 11:05:00,
2013-03-30 07:10:00,35.0,30.7,29.73,WNW,292,1.0,6.0,84,0.00,,,0.00,Weather View 32 v70,2013-03-30 11:10:00,
2013-03-30 07:15:00,35.0,30.4,29.73,NW,315,5.0,6.0,83,0.00,,,0.00,Weather View 32 v70,2013-03-30 11:15:00,
2013-03-30 07:20:00,35.0,30.4,29.72,West,270,4.0,6.0,83,0.00,,,0.00,Weather View 32 v70,2013-03-30 11:20:00,
2013-03-30 07:25:00,35.0,29.8,29.72,NW,315,2.0,7.0,81,0.00,,,0.00,Weather View 32 v70,2013-03-30 11:25:00,
2013-03-30 07:30:00,36.0,31.0,29.72,West,270,3.0,7.0,82,0.00,,,0.00,Weather View 32 v70,2013-03-30 11:30:00,
2013-03-30 07:35:00,36.0,30.4,29.72,WNW,292,1.0,7.0,80,0.00,,,0.00,Weather View 32 v70,2013-03-30 11:35:00,
2013-03-30 07:40:00,37.0,31.1,29.73,WNW,292,3.0,7.0,79,0.00,,,0.00,Weather View 32 v70,2013-03-30 11:40:00,
2013-03-30 07:45:00,37.0,30.8,29.73,WNW,292,5.0,7.0,78,0.00,,,0.00,Weather View 32 v70,2013-03-30 11:45:00,
2013-03-30 07:50:00,38.0,31.7,29.73,West,270,2.0,7.0,78,0.00,,,0.00,Weather View 32 v70,2013-03-30 11:50:00,
2013-03-30 07:55:00,38.0,31.1,29.73,NW,315,3.0,7.0,76,0.00,,,0.00,Weather View 32 v70,2013-03-30 11:55:00,
2013-03-30 08:00:00,38.0,30.8,29.72,WNW,292,1.0,7.0,75,0.00,,,0.00,Weather View 32 v70,2013-03-30 12:00:00,
2013-03-30 08:05:00,39.0,31.1,29.72,West,270,3.0,7.0,73,0.00,,,0.00,Weather View 32 v70,2013-03-30 12:05:00,
2013-03-30 08:15:00,40.0,31.0,29.72,NW,315,4.0,8.0,70,0.00,,,0.00,Weather View 32 v70,2013-03-30 12:15:00,
2013-03-30 08:20:00,41.0,31.2,29.71,West,270,6.0,8.0,68,0.00,,,0.00,Weather View 32 v70,2013-03-30 12:20:00,
2013-03-30 08:25:00,41.0,30.9,29.71,NW,315,5.0,8.0,67,0.00,,,0.00,Weather View 32 v70,2013-03-30 12:25:00,
2013-03-30 08:30:00,42.0,31.1,29.71,WSW,247,5.0,8.0,65,0.00,,,0.00,Weather View 32 v70,2013-03-30 12:30:00,
2013-03-30 08:35:00,43.0,31.2,29.71,NW,315,5.0,8.0,63,0.00,,,0.00,Weather View 32 v70,2013-03-30 12:35:00,
2013-03-30 08:40:00,44.0,31.8,29.71,WNW,292,6.0,8.0,62,0.00,,,0.00,Weather View 32 v70,2013-03-30 12:40:00,
2013-03-30 08:45:00,44.0,30.6,29.71,WNW,292,4.0,9.0,59,0.00,,,0.00,Weather View 32 v70,2013-03-30 12:45:00,
2013-03-30 08:50:00,45.0,30.7,29.71,West,270,0.0,9.0,57,0.00,,,0.00,Weather View 32 v70,2013-03-30 12:50:00,
2013-03-30 08:55:00,45.0,30.7,29.71,North,360,2.0,9.0,57,0.00,,,0.00,Weather View 32 v70,2013-03-30 12:55:00,
2013-03-30 09:00:00,45.0,30.2,29.71,NW,315,1.0,9.0,56,0.00,,,0.00,Weather View 32 v70,2013-03-30 13:00:00,
2013-03-30 09:05:00,46.0,30.7,29.71,NW,315,1.0,9.0,55,0.00,,,0.00,Weather View 32 v70,2013-03-30 13:05:00,
2013-03-30 09:15:00,47.0,31.2,29.71,West,270,6.0,9.0,54,0.00,,,0.00,Weather View 32 v70,2013-03-30 13:15:00,
2013-03-30 09:20:00,47.0,29.8,29.71,East,90,1.0,9.0,51,0.00,,,0.00,Weather View 32 v70,2013-03-30 13:20:00,
2013-03-30 09:25:00,48.0,28.7,29.71,North,360,1.0,9.0,47,0.00,,,0.00,Weather View 32 v70,2013-03-30 13:25:00,
2013-03-30 09:30:00,48.0,30.2,29.71,West,270,3.0,9.0,50,0.00,,,0.00,Weather View 32 v70,2013-03-30 13:30:00,
2013-03-30 09:35:00,49.0,29.1,29.71,West,270,3.0,9.0,46,0.00,,,0.00,Weather View 32 v70,2013-03-30 13:35:00,
2013-03-30 09:40:00,49.0,28.5,29.71,SW,225,1.0,9.0,45,0.00,,,0.00,Weather View 32 v70,2013-03-30 13:40:00,
2013-03-30 09:45:00,49.0,27.4,29.71,NW,315,3.0,9.0,43,0.00,,,0.00,Weather View 32 v70,2013-03-30 13:45:00,
2013-03-30 09:50:00,49.0,28.5,29.71,East,90,2.0,9.0,45,0.00,,,0.00,Weather View 32 v70,2013-03-30 13:50:00,
2013-03-30 09:55:00,49.0,29.1,29.71,West,270,4.0,9.0,46,0.00,,,0.00,Weather View 32 v70,2013-03-30 13:55:00,
2013-03-30 10:00:00,48.0,27.1,29.71,NW,315,2.0,11.0,44,0.00,,,0.00,Weather View 32 v70,2013-03-30 14:00:00,
2013-03-30 10:05:00,48.0,27.6,29.71,West,270,4.0,11.0,45,0.00,,,0.00,Weather View 32 v70,2013-03-30 14:05:00,
2013-03-30 10:10:00,48.0,27.6,29.71,North,360,2.0,11.0,45,0.00,,,0.00,Weather View 32 v70,2013-03-30 14:10:00,
2013-03-30 10:15:00,49.0,25.7,29.71,WNW,292,5.0,11.0,40,0.00,,,0.00,Weather View 32 v70,2013-03-30 14:15:00,
2013-03-30 10:25:00,50.0,27.2,29.70,West,270,5.0,11.0,41,0.00,,,0.00,Weather View 32 v70,2013-03-30 14:25:00,
2013-03-30 10:30:00,51.0,28.7,29.69,East,90,2.0,11.0,42,0.00,,,0.00,Weather View 32 v70,2013-03-30 14:30:00,
2013-03-30 10:35:00,51.0,26.9,29.69,SW,225,0.0,11.0,39,0.00,,,0.00,Weather View 32 v70,2013-03-30 14:35:00,
2013-03-30 10:40:00,51.0,28.1,29.69,SE,135,1.0,11.0,41,0.00,,,0.00,Weather View 32 v70,2013-03-30 14:40:00,
2013-03-30 10:45:00,52.0,27.8,29.69,NW,315,1.0,11.0,39,0.00,,,0.00,Weather View 32 v70,2013-03-30 14:45:00,
2013-03-30 10:50:00,53.0,27.4,29.69,East,90,3.0,11.0,37,0.00,,,0.00,Weather View 32 v70,2013-03-30 14:50:00,
2013-03-30 10:55:00,53.0,26.7,29.69,SE,135,1.0,11.0,36,0.00,,,0.00,Weather View 32 v70,2013-03-30 14:55:00,
2013-03-30 11:00:00,52.0,25.8,29.69,West,270,4.0,12.0,36,0.00,,,0.00,Weather View 32 v70,2013-03-30 15:00:00,
2013-03-30 11:05:00,52.0,25.8,29.69,SW,225,2.0,12.0,36,0.00,,,0.00,Weather View 32 v70,2013-03-30 15:05:00,
2013-03-30 11:10:00,53.0,27.4,29.68,North,360,1.0,12.0,37,0.00,,,0.00,Weather View 32 v70,2013-03-30 15:10:00,
2013-03-30 11:15:00,54.0,26.2,29.68,NW,315,6.0,12.0,34,0.00,,,0.00,Weather View 32 v70,2013-03-30 15:15:00,
2013-03-30 11:20:00,53.0,26.7,29.68,NW,315,1.0,13.0,36,0.00,,,0.00,Weather View 32 v70,2013-03-30 15:20:00,
2013-03-30 11:25:00,54.0,26.9,29.68,NW,315,1.0,13.0,35,0.00,,,0.00,Weather View 32 v70,2013-03-30 15:25:00,
2013-03-30 11:30:00,53.0,24.6,29.67,West,270,4.0,13.0,33,0.00,,,0.00,Weather View 32 v70,2013-03-30 15:30:00,
2013-03-30 11:35:00,54.0,24.0,29.67,East,90,6.0,13.0,31,0.00,,,0.00,Weather View 32 v70,2013-03-30 15:35:00,
2013-03-30 11:40:00,53.0,23.9,29.67,West,270,12.0,15.0,32,0.00,,,0.00,Weather View 32 v70,2013-03-30 15:40:00,
2013-03-30 11:45:00,54.0,22.4,29.67,SW,225,1.0,16.0,29,0.00,,,0.00,Weather View 32 v70,2013-03-30 15:45:00,
2013-03-30 11:50:00,53.0,23.1,29.67,NW,315,6.0,16.0,31,0.00,,,0.00,Weather View 32 v70,2013-03-30 15:50:00,
2013-03-30 11:55:00,54.0,24.0,29.67,WSW,247,1.0,16.0,31,0.00,,,0.00,Weather View 32 v70,2013-03-30 15:55:00,
2013-03-30 12:00:00,54.0,20.7,29.67,West,270,6.0,16.0,27,0.00,,,0.00,Weather View 32 v70,2013-03-30 16:00:00,
2013-03-30 12:05:00,54.0,21.6,29.67,NW,315,5.0,16.0,28,0.00,,,0.00,Weather View 32 v70,2013-03-30 16:05:00,
2013-03-30 12:10:00,54.0,22.4,29.67,NW,315,4.0,16.0,29,0.00,,,0.00,Weather View 32 v70,2013-03-30 16:10:00,
2013-03-30 12:15:00,54.0,24.0,29.67,East,90,0.0,16.0,31,0.00,,,0.00,Weather View 32 v70,2013-03-30 16:15:00,
2013-03-30 12:20:00,53.0,20.7,29.67,West,270,4.0,16.0,28,0.00,,,0.00,Weather View 32 v70,2013-03-30 16:20:00,
2013-03-30 12:25:00,54.0,22.4,29.67,West,270,7.0,16.0,29,0.00,,,0.00,Weather View 32 v70,2013-03-30 16:25:00,
2013-03-30 12:30:00,54.0,22.4,29.67,East,90,0.0,16.0,29,0.00,,,0.00,Weather View 32 v70,2013-03-30 16:30:00,
2013-03-30 12:35:00,55.0,18.8,29.67,NW,315,8.0,16.0,24,0.00,,,0.00,Weather View 32 v70,2013-03-30 16:35:00,
2013-03-30 12:40:00,54.0,19.8,29.65,NW,315,3.0,16.0,26,0.00,,,0.00,Weather View 32 v70,2013-03-30 16:40:00,
2013-03-30 12:45:00,54.0,20.7,29.65,West,270,7.0,12.0,27,0.00,,,0.00,Weather View 32 v70,2013-03-30 16:45:00,
2013-03-30 12:50:00,53.0,18.1,29.66,NW,315,9.0,12.0,25,0.00,,,0.00,Weather View 32 v70,2013-03-30 16:50:00,
2013-03-30 12:55:00,54.0,21.6,29.66,NE,45,1.0,12.0,28,0.00,,,0.00,Weather View 32 v70,2013-03-30 16:55:00,
2013-03-30 13:00:00,55.0,19.8,29.66,ESE,112,5.0,12.0,25,0.00,,,0.00,Weather View 32 v70,2013-03-30 17:00:00,
2013-03-30 13:05:00,54.0,20.7,29.66,West,270,3.0,12.0,27,0.00,,,0.00,Weather View 32 v70,2013-03-30 17:05:00,
2013-03-30 13:10:00,54.0,19.8,29.66,ENE,67,2.0,12.0,26,0.00,,,0.00,Weather View 32 v70,2013-03-30 17:10:00,
2013-03-30 13:15:00,55.0,19.8,29.66,NNW,337,1.0,12.0,25,0.00,,,0.00,Weather View 32 v70,2013-03-30 17:15:00,
2013-03-30 13:20:00,56.0,20.6,29.65,West,270,1.0,12.0,25,0.00,,,0.00,Weather View 32 v70,2013-03-30 17:20:00,
2013-03-30 13:25:00,56.0,21.5,29.65,West,270,3.0,12.0,26,0.00,,,0.00,Weather View 32 v70,2013-03-30 17:25:00,
2013-03-30 13:30:00,56.0,20.6,29.65,NW,315,1.0,12.0,25,0.00,,,0.00,Weather View 32 v70,2013-03-30 17:30:00,
2013-03-30 13:39:00,56.0,19.6,29.65,SW,225,2.0,12.0,24,0.00,,,0.00,Weather View 32 v70,2013-03-30 17:39:00,
2013-03-30 13:45:00,57.0,17.4,29.65,East,90,5.0,12.0,21,0.00,,,0.00,Weather View 32 v70,2013-03-30 17:45:00,
2013-03-30 13:50:00,57.0,18.5,29.63,ENE,67,3.0,12.0,22,0.00,,,0.00,Weather View 32 v70,2013-03-30 17:50:00,
2013-03-30 13:55:00,57.0,17.4,29.63,West,270,2.0,12.0,21,0.00,,,0.00,Weather View 32 v70,2013-03-30 17:55:00,
2013-03-30 14:00:00,57.0,20.5,29.63,East,90,5.0,12.0,24,0.00,,,0.00,Weather View 32 v70,2013-03-30 18:00:00,
2013-03-30 14:05:00,57.0,18.5,29.63,East,90,1.0,10.0,22,0.00,,,0.00,Weather View 32 v70,2013-03-30 18:05:00,
2013-03-30 14:10:00,56.0,18.7,29.63,West,270,6.0,10.0,23,0.00,,,0.00,Weather View 32 v70,2013-03-30 18:10:00,
2013-03-30 14:15:00,55.0,17.8,29.63,WSW,247,5.0,12.0,23,0.00,,,0.00,Weather View 32 v70,2013-03-30 18:15:00,
2013-03-30 14:25:00,56.0,18.7,29.64,South,180,2.0,12.0,23,0.00,,,0.00,Weather View 32 v70,2013-03-30 18:25:00,
2013-03-30 14:30:00,56.0,17.6,29.64,South,180,1.0,12.0,22,0.00,,,0.00,Weather View 32 v70,2013-03-30 18:30:00,
2013-03-30 14:40:00,56.0,16.5,29.64,WNW,292,3.0,12.0,21,0.00,,,0.00,Weather View 32 v70,2013-03-30 18:40:00,
2013-03-30 14:50:00,57.0,18.5,29.63,SW,225,1.0,12.0,22,0.00,,,0.00,Weather View 32 v70,2013-03-30 18:50:00,
2013-03-30 15:00:00,57.0,16.2,29.63,North,360,2.0,12.0,20,0.00,,,0.00,Weather View 32 v70,2013-03-30 19:00:00,
2013-03-30 15:05:00,57.0,16.2,29.63,WNW,292,5.0,12.0,20,0.00,,,0.00,Weather View 32 v70,2013-03-30 19:05:00,
2013-03-30 15:10:00,57.0,16.2,29.63,NE,45,2.0,12.0,20,0.00,,,0.00,Weather View 32 v70,2013-03-30 19:10:00,
2013-03-30 15:15:00,57.0,18.5,29.63,South,180,1.0,12.0,22,0.00,,,0.00,Weather View 32 v70,2013-03-30 19:15:00,
2013-03-30 15:20:00,58.0,18.2,29.63,East,90,3.0,12.0,21,0.00,,,0.00,Weather View 32 v70,2013-03-30 19:20:00,
2013-03-30 15:25:00,57.0,17.4,29.63,SE,135,1.0,12.0,21,0.00,,,0.00,Weather View 32 v70,2013-03-30 19:25:00,
2013-03-30 15:30:00,56.0,17.6,29.63,NW,315,4.0,12.0,22,0.00,,,0.00,Weather View 32 v70,2013-03-30 19:30:00,
2013-03-30 15:35:00,57.0,18.5,29.63,West,270,2.0,12.0,22,0.00,,,0.00,Weather View 32 v70,2013-03-30 19:35:00,
2013-03-30 15:40:00,55.0,17.8,29.64,NW,315,6.0,12.0,23,0.00,,,0.00,Weather View 32 v70,2013-03-30 19:40:00,
2013-03-30 15:45:00,55.0,18.8,29.64,NW,315,2.0,12.0,24,0.00,,,0.00,Weather View 32 v70,2013-03-30 19:45:00,
2013-03-30 15:50:00,55.0,17.8,29.63,NW,315,7.0,13.0,23,0.00,,,0.00,Weather View 32 v70,2013-03-30 19:50:00,
2013-03-30 15:55:00,54.0,18.0,29.63,WNW,292,3.0,13.0,24,0.00,,,0.00,Weather View 32 v70,2013-03-30 19:55:00,
2013-03-30 16:05:00,55.0,18.8,29.64,NW,315,3.0,13.0,24,0.00,,,0.00,Weather View 32 v70,2013-03-30 20:05:00,
2013-03-30 16:10:00,56.0,18.7,29.63,SE,135,2.0,13.0,23,0.00,,,0.00,Weather View 32 v70,2013-03-30 20:10:00,
2013-03-30 16:15:00,56.0,18.7,29.63,NW,315,4.0,13.0,23,0.00,,,0.00,Weather View 32 v70,2013-03-30 20:15:00,
2013-03-30 16:20:00,56.0,19.6,29.62,NW,315,7.0,13.0,24,0.00,,,0.00,Weather View 32 v70,2013-03-30 20:20:00,
2013-03-30 16:25:00,56.0,18.7,29.62,West,270,11.0,13.0,23,0.00,,,0.00,Weather View 32 v70,2013-03-30 20:25:00,
2013-03-30 16:30:00,56.0,18.7,29.63,West,270,3.0,13.0,23,0.00,,,0.00,Weather View 32 v70,2013-03-30 20:30:00,
2013-03-30 16:35:00,55.0,17.8,29.63,West,270,6.0,13.0,23,0.00,,,0.00,Weather View 32 v70,2013-03-30 20:35:00,
2013-03-30 16:40:00,55.0,16.8,29.63,East,90,2.0,13.0,22,0.00,,,0.00,Weather View 32 v70,2013-03-30 20:40:00,
2013-03-30 16:45:00,56.0,18.7,29.63,West,270,0.0,13.0,23,0.00,,,0.00,Weather View 32 v70,2013-03-30 20:45:00,
2013-03-30 16:50:00,56.0,18.7,29.62,WNW,292,8.0,12.0,23,0.00,,,0.00,Weather View 32 v70,2013-03-30 20:50:00,
2013-03-30 16:55:00,56.0,18.7,29.62,NW,315,2.0,12.0,23,0.00,,,0.00,Weather View 32 v70,2013-03-30 20:55:00,
2013-03-30 17:00:00,55.0,16.8,29.63,West,270,7.0,12.0,22,0.00,,,0.00,Weather View 32 v70,2013-03-30 21:00:00,
2013-03-30 17:05:00,55.0,17.8,29.63,WNW,292,6.0,12.0,23,0.00,,,0.00,Weather View 32 v70,2013-03-30 21:05:00,
2013-03-30 17:10:00,54.0,18.0,29.63,WNW,292,7.0,12.0,24,0.00,,,0.00,Weather View 32 v70,2013-03-30 21:10:00,
2013-03-30 17:15:00,54.0,17.0,29.63,NW,315,2.0,12.0,23,0.00,,,0.00,Weather View 32 v70,2013-03-30 21:15:00,
2013-03-30 17:25:00,54.0,17.0,29.63,WNW,292,5.0,12.0,23,0.00,,,0.00,Weather View 32 v70,2013-03-30 21:25:00,
2013-03-30 17:30:00,54.0,18.0,29.63,West,270,3.0,12.0,24,0.00,,,0.00,Weather View 32 v70,2013-03-30 21:30:00,
2013-03-30 17:35:00,54.0,18.0,29.63,West,270,2.0,12.0,24,0.00,,,0.00,Weather View 32 v70,2013-03-30 21:35:00,
2013-03-30 17:40:00,54.0,18.0,29.64,NW,315,2.0,12.0,24,0.00,,,0.00,Weather View 32 v70,2013-03-30 21:40:00,
2013-03-30 17:45:00,54.0,18.0,29.64,SW,225,1.0,12.0,24,0.00,,,0.00,Weather View 32 v70,2013-03-30 21:45:00,
2013-03-30 17:50:00,53.0,17.1,29.64,WNW,292,1.0,10.0,24,0.00,,,0.00,Weather View 32 v70,2013-03-30 21:50:00,
2013-03-30 17:55:00,53.0,18.1,29.64,NW,315,1.0,10.0,25,0.00,,,0.00,Weather View 32 v70,2013-03-30 21:55:00,
2013-03-30 18:00:00,52.0,18.1,29.65,South,180,1.0,10.0,26,0.00,,,0.00,Weather View 32 v70,2013-03-30 22:00:00,
2013-03-30 18:05:00,52.0,18.1,29.65,West,270,0.0,10.0,26,0.00,,,0.00,Weather View 32 v70,2013-03-30 22:05:00,
2013-03-30 18:10:00,52.0,18.1,29.65,North,360,1.0,10.0,26,0.00,,,0.00,Weather View 32 v70,2013-03-30 22:10:00,
2013-03-30 18:15:00,52.0,17.2,29.65,WNW,292,5.0,10.0,25,0.00,,,0.00,Weather View 32 v70,2013-03-30 22:15:00,
2013-03-30 18:20:00,51.0,17.3,29.65,NW,315,2.0,10.0,26,0.00,,,0.00,Weather View 32 v70,2013-03-30 22:20:00,
2013-03-30 18:25:00,51.0,18.1,29.65,NW,315,4.0,9.0,27,0.00,,,0.00,Weather View 32 v70,2013-03-30 22:25:00,
2013-03-30 18:30:00,51.0,19.0,29.66,WNW,292,0.0,9.0,28,0.00,,,0.00,Weather View 32 v70,2013-03-30 22:30:00,
2013-03-30 18:35:00,50.0,17.3,29.66,SE,135,0.0,9.0,27,0.00,,,0.00,Weather View 32 v70,2013-03-30 22:35:00,
2013-03-30 18:40:00,50.0,16.4,29.66,West,270,4.0,9.0,26,0.00,,,0.00,Weather View 32 v70,2013-03-30 22:40:00,
2013-03-30 18:45:00,50.0,17.3,29.66,NW,315,0.0,9.0,27,0.00,,,0.00,Weather View 32 v70,2013-03-30 22:45:00,
2013-03-30 18:50:00,49.0,18.1,29.67,West,270,0.0,9.0,29,0.00,,,0.00,Weather View 32 v70,2013-03-30 22:50:00,
2013-03-30 18:55:00,49.0,18.1,29.67,West,270,0.0,9.0,29,0.00,,,0.00,Weather View 32 v70,2013-03-30 22:55:00,
2013-03-30 19:05:00,48.0,16.4,29.67,SE,135,1.0,9.0,28,0.00,,,0.00,Weather View 32 v70,2013-03-30 23:05:00,
2013-03-30 19:15:00,46.0,15.5,29.68,West,270,0.0,8.0,29,0.00,,,0.00,Weather View 32 v70,2013-03-30 23:15:00,
2013-03-30 19:20:00,46.0,16.3,29.69,North,360,4.0,8.0,30,0.00,,,0.00,Weather View 32 v70,2013-03-30 23:20:00,
2013-03-30 19:25:00,46.0,17.7,29.69,NW,315,0.0,8.0,32,0.00,,,0.00,Weather View 32 v70,2013-03-30 23:25:00,
2013-03-30 19:30:00,45.0,16.1,29.69,NW,315,0.0,8.0,31,0.00,,,0.00,Weather View 32 v70,2013-03-30 23:30:00,
2013-03-30 19:35:00,45.0,16.9,29.69,NW,315,0.0,8.0,32,0.00,,,0.00,Weather View 32 v70,2013-03-30 23:35:00,
2013-03-30 19:40:00,44.0,15.3,29.70,NW,315,0.0,8.0,31,0.00,,,0.00,Weather View 32 v70,2013-03-30 23:40:00,
2013-03-30 19:45:00,44.0,16.0,29.70,NW,315,0.0,6.0,32,0.00,,,0.00,Weather View 32 v70,2013-03-30 23:45:00,
2013-03-30 19:50:00,43.0,14.4,29.70,NW,315,0.0,6.0,31,0.00,,,0.00,Weather View 32 v70,2013-03-30 23:50:00,
2013-03-30 19:55:00,43.0,15.1,29.70,NW,315,0.0,6.0,32,0.00,,,0.00,Weather View 32 v70,2013-03-30 23:55:00,
2013-03-30 20:00:00,43.0,15.1,29.71,NW,315,0.0,6.0,32,0.00,,,0.00,Weather View 32 v70,2013-03-31 00:00:00,
2013-03-30 20:05:00,42.0,14.2,29.71,NW,315,0.0,6.0,32,0.00,,,0.00,Weather View 32 v70,2013-03-31 00:05:00,
2013-03-30 20:10:00,42.0,14.2,29.71,NW,315,0.0,6.0,32,0.00,,,0.00,Weather View 32 v70,2013-03-31 00:10:00,
2013-03-30 20:15:00,42.0,14.2,29.71,NW,315,0.0,6.0,32,0.00,,,0.00,Weather View 32 v70,2013-03-31 00:15:00,
2013-03-30 20:20:00,42.0,14.2,29.71,NW,315,0.0,6.0,32,0.00,,,0.00,Weather View 32 v70,2013-03-31 00:20:00,
2013-03-30 20:25:00,42.0,14.9,29.71,NW,315,0.0,1.0,33,0.00,,,0.00,Weather View 32 v70,2013-03-31 00:25:00,
2013-03-30 20:30:00,42.0,14.9,29.72,NW,315,0.0,1.0,33,0.00,,,0.00,Weather View 32 v70,2013-03-31 00:30:00,
2013-03-30 20:35:00,41.0,14.1,29.72,NW,315,0.0,1.0,33,0.00,,,0.00,Weather View 32 v70,2013-03-31 00:35:00,
2013-03-30 20:40:00,41.0,14.7,29.72,NW,315,0.0,1.0,34,0.00,,,0.00,Weather View 32 v70,2013-03-31 00:40:00,
2013-03-30 20:45:00,41.0,14.7,29.72,NW,315,0.0,1.0,34,0.00,,,0.00,Weather View 32 v70,2013-03-31 00:45:00,
2013-03-30 20:50:00,41.0,14.1,29.73,NW,315,0.0,1.0,33,0.00,,,0.00,Weather View 32 v70,2013-03-31 00:50:00,
2013-03-30 20:55:00,41.0,14.1,29.73,NW,315,0.0,0.0,33,0.00,,,0.00,Weather View 32 v70,2013-03-31 00:55:00,
2013-03-30 21:00:00,41.0,14.1,29.73,NW,315,0.0,0.0,33,0.00,,,0.00,Weather View 32 v70,2013-03-31 01:00:00,
2013-03-30 21:05:00,41.0,14.1,29.73,NW,315,0.0,0.0,33,0.00,,,0.00,Weather View 32 v70,2013-03-31 01:05:00,
2013-03-30 21:10:00,41.0,14.7,29.73,NW,315,0.0,0.0,34,0.00,,,0.00,Weather View 32 v70,2013-03-31 01:10:00,
2013-03-30 21:15:00,41.0,14.7,29.73,NW,315,0.0,0.0,34,0.00,,,0.00,Weather View 32 v70,2013-03-31 01:15:00,
2013-03-30 21:25:00,40.0,13.9,29.73,NW,315,0.0,0.0,34,0.00,,,0.00,Weather View 32 v70,2013-03-31 01:25:00,
2013-03-30 21:30:00,40.0,13.9,29.73,NW,315,0.0,0.0,34,0.00,,,0.00,Weather View 32 v70,2013-03-31 01:30:00,
2013-03-30 21:35:00,40.0,13.9,29.73,NW,315,0.0,0.0,34,0.00,,,0.00,Weather View 32 v70,2013-03-31 01:35:00,
2013-03-30 21:40:00,41.0,14.7,29.74,NW,315,0.0,0.0,34,0.00,,,0.00,Weather View 32 v70,2013-03-31 01:40:00,
2013-03-30 21:45:00,41.0,14.7,29.74,NW,315,0.0,0.0,34,0.00,,,0.00,Weather View 32 v70,2013-03-31 01:45:00,
2013-03-30 21:50:00,40.0,13.9,29.74,NW,315,0.0,0.0,34,0.00,,,0.00,Weather View 32 v70,2013-03-31 01:50:00,
2013-03-30 21:55:00,40.0,13.9,29.74,NW,315,0.0,0.0,34,0.00,,,0.00,Weather View 32 v70,2013-03-31 01:55:00,
2013-03-30 22:00:00,40.0,13.9,29.74,NW,315,0.0,0.0,34,0.00,,,0.00,Weather View 32 v70,2013-03-31 02:00:00,
2013-03-30 22:05:00,40.0,13.9,29.74,NW,315,0.0,0.0,34,0.00,,,0.00,Weather View 32 v70,2013-03-31 02:05:00,
2013-03-30 22:10:00,40.0,13.9,29.74,NW,315,0.0,0.0,34,0.00,,,0.00,Weather View 32 v70,2013-03-31 02:10:00,
2013-03-30 22:15:00,40.0,13.9,29.74,NW,315,0.0,0.0,34,0.00,,,0.00,Weather View 32 v70,2013-03-31 02:15:00,
2013-03-30 22:20:00,40.0,13.9,29.74,NW,315,0.0,0.0,34,0.00,,,0.00,Weather View 32 v70,2013-03-31 02:20:00,
2013-03-30 22:25:00,40.0,14.5,29.74,NW,315,0.0,0.0,35,0.00,,,0.00,Weather View 32 v70,2013-03-31 02:25:00,
2013-03-30 22:30:00,39.0,13.6,29.74,NW,315,0.0,0.0,35,0.00,,,0.00,Weather View 32 v70,2013-03-31 02:30:00,
2013-03-30 22:40:00,39.0,13.6,29.75,NW,315,0.0,0.0,35,0.00,,,0.00,Weather View 32 v70,2013-03-31 02:40:00,
2013-03-30 22:50:00,39.0,13.6,29.75,NW,315,0.0,0.0,35,0.00,,,0.00,Weather View 32 v70,2013-03-31 02:50:00,
2013-03-30 22:55:00,39.0,14.3,29.75,NW,315,0.0,0.0,36,0.00,,,0.00,Weather View 32 v70,2013-03-31 02:55:00,
2013-03-30 23:00:00,39.0,14.3,29.74,NW,315,0.0,0.0,36,0.00,,,0.00,Weather View 32 v70,2013-03-31 03:00:00,
2013-03-30 23:05:00,39.0,13.6,29.74,NW,315,0.0,0.0,35,0.00,,,0.00,Weather View 32 v70,2013-03-31 03:05:00,
2013-03-30 23:10:00,39.0,14.3,29.74,NW,315,0.0,0.0,36,0.00,,,0.00,Weather View 32 v70,2013-03-31 03:10:00,
2013-03-30 23:15:00,38.0,13.4,29.74,NW,315,0.0,0.0,36,0.00,,,0.00,Weather View 32 v70,2013-03-31 03:15:00,
2013-03-30 23:20:00,38.0,12.7,29.74,NW,315,0.0,0.0,35,0.00,,,0.00,Weather View 32 v70,2013-03-31 03:20:00,
2013-03-30 23:25:00,39.0,13.0,29.74,NW,315,0.0,0.0,34,0.00,,,0.00,Weather View 32 v70,2013-03-31 03:25:00,
2013-03-30 23:30:00,39.0,14.3,29.75,NW,315,0.0,0.0,36,0.00,,,0.00,Weather View 32 v70,2013-03-31 03:30:00,
2013-03-30 23:35:00,38.0,15.2,29.75,NW,315,0.0,0.0,39,0.00,,,0.00,Weather View 32 v70,2013-03-31 03:35:00,
2013-03-30 23:40:00,37.0,16.0,29.75,NW,315,1.0,1.0,42,0.00,,,0.00,Weather View 32 v70,2013-03-31 03:40:00,
2013-03-30 23:45:00,37.0,16.6,29.75,NW,315,2.0,2.0,43,0.00,,,0.00,Weather View 32 v70,2013-03-31 03:45:00,
2013-03-30 23:55:00,37.0,16.6,29.76,NW,315,2.0,3.0,43,0.00,,,0.00,Weather View 32 v70,2013-03-31 03:55:00,